Regional Weather Roundup
Issued by NWS Albany, NY

Home | Current Version | Previous Version | Text Only | Print | Product List | Glossary On
Versions: 1 2 3 4 5 6 7 8 9 10 11 12 13 14 15 16 17 18 19 20 21 22 23 24 25 26 27 28 29 30 31 32 33 34 35 36 37 38 39 40 41 42 43 44 45 46 47 48 49 50
000
ASUS41 KALY 240710
RWRALY

NEW YORK STATE HOURLY WEATHER ROUNDUP
NATIONAL WEATHER SERVICE ALBANY NY
200 AM EST TUE JAN 24 2017

NOTE: "FAIR" INDICATES FEW OR NO CLOUDS BELOW 12,000 FEET WITH NO
SIGNIFICANT WEATHER AND/OR NO OBSTRUCTIONS TO VISIBILITY.

NYZ032-033-038>043-046>054-057>066-NYZ062>081-082-084-240800-
EAST


CITY           SKY/WX    TMP DP  RH WIND       PRES   REMARKS
ALBANY         LGTSLEET  33  29  85 N12       29.65F WCI  24
GLENS FALLS    FRZ RAIN  33  28  81 N16       29.70F WCI  23
POUGHKEEPSIE   RAIN      33  31  92 N13       29.50F FOG     WCI  24
NEWBURGH       CLOUDY    32  32 100 NE13G32   29.49F FOG     WCI  22
MONTGOMERY     RAIN      33  30  88 NE18G31   29.47F FOG     WCI  22
WHITE PLAINS   LGT RAIN  37  33  85 NE14G29   29.39F FOG     WCI  28
ISLIP          RAIN      39  37  92 NE29G46   29.34F FOG     WCI  27
NEW YORK CITY  LGT RAIN  40  35  83 NE23G35   29.37F WCI  30
CENTRAL PARK   LGT RAIN  37  35  92 NE17G30   29.39F WCI  27
$$

NYZ005>009-017-018-044>046-055-056-240800-
CENTRAL


CITY           SKY/WX    TMP DP  RH WIND       PRES   REMARKS
FULTON         LGT RAIN  33  30  88 N13       29.68F WCI  24
SYRACUSE       FRZ RAIN  32  31  96 N6        29.66F WCI  26
ROME           RAIN      33  31  92 CALM      29.66F
ELMIRA         LGT SNOW  33  29  85 NE5       29.59F FOG     WCI  29
BINGHAMTON     FRZ RAIN  31  30  96 NE10      29.52F FOG     WCI  22
MONTICELLO     CLOUDY    34  30  86 E8        29.46F WCI  27
$$

NYZ026>034-041>043-087-240800-
NORTH


CITY           SKY/WX    TMP DP  RH WIND       PRES   REMARKS
WATERTOWN      FRZ RAIN  31  29  92 NE12      29.72F FOG     WCI  22
FORT DRUM      NOT AVBL
OGDENSBURG     MIX PCPN  29  27  90 NE10      29.80F WCI  20
MASSENA        MIX PCPN  29  23  78 NE17      29.84F WCI  17
SARANAC LAKE   CLOUDY    28  24  85 NE9       29.70F WCI  19
PLATTSBURGH    MIX PCPN  32  24  72 NE5       29.86F WCI  27
$$

NYZ001>004-010>016-019>021-085-240800-
WEST


CITY           SKY/WX    TMP DP  RH WIND       PRES   REMARKS
NIAGARA FALLS  CLOUDY    36  28  73 NE8       29.69F WCI  30
BUFFALO        CLOUDY    34  26  72 NE12      29.68F WCI  25
DUNKIRK        CLOUDY    34  29  82 NE12      29.67S WCI  25
JAMESTOWN      CLOUDY    32  30  93 N5        29.60S VSB 1   WCI  27
WELLSVILLE     LGT SNOW  31  29  92 N8        29.58S FOG     WCI  23
ROCHESTER      LGTSLEET  33  30  88 E7        29.70F WCI  27
PENN YAN       FRZ RAIN  31  27  85 VRB7      29.65S WCI  24
$$

             KEY
       WCI = WIND CHILL INDEX
       VSB = VISIBILITY
       HX  = HEAT INDEX
$$



USA.gov is the U.S. government's official web portal to all federal, state and local government web resources and services.